Weather History for BGBW - August, 2014

Change the Weather History Date:

Wednesday, August 20, 2014

  Actual Average Record
Temperature  
Mean Temperature 55 °F -  
Max Temperature 66 °F 52 °F 66 °F (2014)
Min Temperature 44 °F 38 °F 39 °F (1997)
Degree Days  
Heating Degree Days 10    
Growing Degree Days 5 (Base 50)    
Moisture  
Dew Point 40 °F    
Average Humidity 56    
Maximum Humidity 76    
Minimum Humidity 31    
Precipitation  
Precipitation 0.00 in 0.09 in - ()
Sea Level Pressure  
Sea Level Pressure 30.27 in    
Wind  
Wind Speed 5 mph ()    
Max Wind Speed 12 mph    
Max Gust Speed -    
Visibility 9.6 miles    
Events      
Averages and records for this station are not official NWS values.
T = Trace of Precipitation, MM = Missing Value Source: Averaged Metar Reports

Daily Weather History Graph

Daily Weather History Graph

Search for Another Location

Airport or City:

Trip Planner

Search our weather history database for the weather conditions in past years. The results will help you decide how hot, cold, wet, or windy it might be!

Date:

Astronomy

Aug. 20, 2014 Rise Set
Actual Time 5:22 AM WGST 8:45 PM WGST
Civil Twilight 4:31 AM WGST 9:36 PM WGST
Nautical Twilight 3:15 AM WGST 10:50 PM WGST
Astronomical Twilight 1:37 AM WGST 12:32 AM WGST
Moon 12:23 AM WGST (8/20) 5:56 PM WGST (8/20)
Length of Visible Light 17h 05m
Length of Day
15h 22m
Waning Crescent, 21% of the Moon is Illuminated
Aug 20
Waning Crescent
Aug 25
New
Sep 2
First Quarter
Sep 8
Full
Sep 16
Last Quarter

Hourly Weather History & Observations

Time (WGST) Temp. Windchill Dew Point Humidity Pressure Visibility Wind Dir Wind Speed Gust Speed Precip Events Conditions
12:00 AM 47 °F - 37 °F 58% 30.25 in 28 mi ENE 5.8 mph - -   Scattered Clouds
1:00 AM 46 °F - 36 °F 59% 30.24 in 28 mi NE 5.8 mph - -  
1:50 AM 48.2 °F - 37.4 °F 66% 30.24 in 6.2 mi East 4.6 mph - N/A   Partly Cloudy
2:00 AM 49 °F - 36 °F 49% 30.24 in 31 mi ENE 4.6 mph - -  
2:50 AM 46.4 °F 43.5 °F 37.4 °F 71% 30.24 in 6.2 mi ENE 5.8 mph - N/A   Partly Cloudy
3:00 AM 46 °F - 35 °F 56% 30.25 in 31 mi ENE 5.8 mph - -  
3:50 AM 44.6 °F 42.2 °F 35.6 °F 71% 30.24 in 6.2 mi ENE 4.6 mph - N/A   Partly Cloudy
4:00 AM 46 °F - 35 °F 56% 30.25 in 31 mi NE 4.6 mph - -  
4:50 AM 44.6 °F 42.2 °F 37.4 °F 76% 30.24 in 6.2 mi ENE 4.6 mph - N/A   Partly Cloudy
5:00 AM 46 °F - 36 °F 59% 30.26 in 31 mi East 3.5 mph - -  
5:50 AM 46.4 °F 43.5 °F 35.6 °F 66% 30.24 in 6.2 mi East 5.8 mph - N/A   Partly Cloudy
6:00 AM 45 °F - 35 °F 57% 30.27 in 31 mi ENE 5.8 mph - -  
6:50 AM 44.6 °F 42.2 °F 37.4 °F 76% 30.27 in 6.2 mi ENE 4.6 mph - N/A   Partly Cloudy
7:00 AM 46 °F - 36 °F 58% 30.29 in 31 mi NE 3.5 mph - -  
7:50 AM 46.4 °F 44.3 °F 39.2 °F 76% 30.27 in 6.2 mi ENE 4.6 mph - N/A   Partly Cloudy
8:00 AM 46 °F - 36 °F 57% 30.30 in 25 mi ENE 4.6 mph - -  
8:50 AM 48.2 °F - 41.0 °F 76% 30.30 in 6.2 mi East 1.2 mph - N/A   Scattered Clouds
9:00 AM 49 °F - 42 °F 71% 30.32 in 25 mi East 2.3 mph - -   Scattered Clouds
9:50 AM 55.4 °F - 39.2 °F 54% 30.30 in 6.2 mi NE 3.5 mph - N/A   Scattered Clouds
10:00 AM 56 °F - 38 °F 38% 30.32 in 19 mi NE 3.5 mph - -   Mostly Cloudy
10:50 AM 57.2 °F - 44.6 °F 63% 30.30 in 6.2 mi WSW 3.5 mph - N/A   Scattered Clouds
11:00 AM 56 °F - 42 °F 49% 30.33 in 19 mi West 2.3 mph - -   Partly Cloudy
11:50 AM 59.0 °F - 44.6 °F 59% 30.30 in 6.2 mi WSW 2.3 mph - N/A   Scattered Clouds
12:00 PM 59 °F - 42 °F 41% 30.32 in 17 mi WSW 4.6 mph - -   Partly Cloudy
12:50 PM 60.8 °F - 44.6 °F 55% 30.30 in 6.2 mi WNW 4.6 mph - N/A   Scattered Clouds
1:00 PM 60 °F - 43 °F 41% 30.32 in 19 mi WSW 6.9 mph - -   Scattered Clouds
1:50 PM 62.6 °F - 44.6 °F 52% 30.30 in 6.2 mi West 5.8 mph - N/A   Scattered Clouds
2:00 PM 64 °F - 43 °F 35% 30.31 in 17 mi West 5.8 mph - -   Scattered Clouds
2:50 PM 64.4 °F - 42.8 °F 45% 30.27 in 6.2 mi West 4.6 mph - N/A   Scattered Clouds
3:00 PM 64 °F - 41 °F 31% 30.29 in 18 mi WSW 4.6 mph - -   Scattered Clouds
3:50 PM 64.4 °F - 44.6 °F 49% 30.27 in 6.2 mi WSW 8.1 mph - N/A   Scattered Clouds
4:00 PM 64 °F - 43 °F 34% 30.28 in 19 mi WSW 8.1 mph - -   Mostly Cloudy
4:50 PM 62.6 °F - 46.4 °F 55% 30.27 in 6.2 mi WSW 11.5 mph - N/A   Scattered Clouds
5:00 PM 63 °F - 44 °F 38% 30.29 in 28 mi WSW 10.4 mph - -   Mostly Cloudy
5:50 PM 62.6 °F - 46.4 °F 55% 30.27 in 6.2 mi WSW 5.8 mph - N/A   Scattered Clouds
6:00 PM 63 °F - 44 °F 39% 30.28 in 19 mi WSW 5.8 mph - -  
6:50 PM 62.6 °F - 48.2 °F 59% 30.27 in 6.2 mi West 4.6 mph - N/A   Mostly Cloudy
7:00 PM 62 °F - 46 °F 45% 30.27 in 22 mi West 4.6 mph - -  
7:50 PM 55.4 °F - 41.0 °F 58% 30.24 in 6.2 mi East 6.9 mph - N/A   Mostly Cloudy
8:00 PM 54 °F - 39 °F 47% 30.26 in 28 mi ENE 6.9 mph - -  
8:50 PM 51.8 °F - 41.0 °F 67% 30.24 in 6.2 mi ENE 8.1 mph - N/A   Scattered Clouds
9:00 PM 51 °F - 39 °F 53% 30.25 in 28 mi ENE 8.1 mph - -  
9:50 PM 50.0 °F - 41.0 °F 71% 30.24 in 6.2 mi ENE 5.8 mph - N/A   Scattered Clouds
10:00 PM 53 °F - 41 °F 53% 30.25 in 28 mi East 5.8 mph - -   Scattered Clouds
11:00 PM 49 °F - 38 °F 55% 30.24 in 28 mi NE 4.6 mph - -   Scattered Clouds